This is the latest recevied weather packets stored in our database for station/object KD4IZ-13. If no packets are shown the sender has not sent any weather packets the latest 10 day(s).
| Time | Temp. | Humidity | Pressure | Rain* | Wind** | Luminosity | Snow |
|---|---|---|---|---|---|---|---|
| 1777510693 | 11.67° C | 99% | 1009.7 hPa | 10.16 mm | - | 0 W/m² | - |
| 1777510388 | 11.67° C | 99% | 1010 hPa | 7.87 mm | - | 0 W/m² | - |
| 1777510084 | 11.67° C | 99% | 1009.8 hPa | 3.05 mm | - | 0 W/m² | - |
| 1777509782 | 11.67° C | 99% | 1009.8 hPa | 3.05 mm | - | 0 W/m² | - |
| 1777509477 | 11.67° C | 99% | 1009.5 hPa | 6.6 mm | - | 0 W/m² | - |
| 1777509175 | 11.67° C | 99% | 1009.7 hPa | 4.83 mm | - | 0 W/m² | - |
| 1777508872 | 11.67° C | 99% | 1009.8 hPa | 0 mm | - | 0 W/m² | - |
| 1777508568 | 11.67° C | 99% | 1009.7 hPa | 1.27 mm | - | 0 W/m² | - |
| 1777508266 | 11.67° C | 99% | 1009.5 hPa | 1.27 mm | - | 0 W/m² | - |
| 1777507963 | 11.67° C | 99% | 1009.5 hPa | 0 mm | - | 0 W/m² | - |
| 1777507659 | 12.22° C | 99% | 1009.5 hPa | 0 mm | - | 0 W/m² | - |
| 1777507356 | 12.22° C | 99% | 1009.6 hPa | 0 mm | - | 0 W/m² | - |
| 1777507054 | 12.22° C | 99% | 1009.4 hPa | 0 mm | - | 0 W/m² | - |
| 1777506751 | 12.22° C | 99% | 1009.6 hPa | 1.78 mm | - | 0 W/m² | - |
| 1777506447 | 12.22° C | 99% | 1009.6 hPa | 3.05 mm | - | 0 W/m² | - |
| 1777506143 | 12.22° C | 99% | 1009.5 hPa | 3.05 mm | - | 0 W/m² | - |
| 1777505839 | 12.22° C | 99% | 1009.5 hPa | 1.78 mm | - | 0 W/m² | - |
| 1777505536 | 12.22° C | 99% | 1009.6 hPa | 1.78 mm | - | 2 W/m² | - |
| 1777505233 | 12.22° C | 99% | 1009.4 hPa | 0 mm | - | 2 W/m² | - |
| 1777504929 | 12.22° C | 99% | 1009.3 hPa | 0 mm | - | 2 W/m² | - |
| 1777504627 | 12.22° C | 99% | 1009.5 hPa | 0 mm | - | 3 W/m² | - |
| 1777504323 | 12.22° C | 99% | 1009.4 hPa | 0 mm | - | 8 W/m² | - |
| 1777504018 | 12.22° C | 99% | 1009.2 hPa | 1.27 mm | - | 14 W/m² | - |
| 1777503715 | 12.22° C | 99% | 1008.8 hPa | 4.32 mm | - | 15 W/m² | - |
| 1777503412 | 12.22° C | 99% | 1008.4 hPa | 6.1 mm | - | 16 W/m² | - |
* Rain latest hour (hover to see other rain measurements)
** Current wind speed in m/s (hover to see current wind gust speed)